timestamp,wind_dir_avg,wind_spd_avg,wind_spd_max_dir,wind_spd_gust,battery_voltage,lat,long
2023-08-21 00:04:01+00:00,215.0,9.94,215.0,11.05,12.41,47.59359,-54.27349
2023-08-21 00:14:01+00:00,215.0,9.67,213.0,10.84,12.41,47.59359,-54.27349
2023-08-21 00:24:01+00:00,217.0,8.48,217.0,9.54,12.41,47.59359,-54.27349
2023-08-21 00:34:01+00:00,214.0,9.57,211.0,10.83,12.41,47.59359,-54.27349
2023-08-21 00:44:01+00:00,209.0,8.84,207.0,9.95,12.41,47.59359,-54.27349
2023-08-21 00:54:01+00:00,215.0,9.18,222.0,10.88,12.41,47.59359,-54.27349
2023-08-21 01:04:01+00:00,211.0,9.23,213.0,10.33,12.41,47.59359,-54.27349
2023-08-21 01:14:00+00:00,212.0,8.79,218.0,10.72,12.41,47.59359,-54.27349
2023-08-21 01:24:00+00:00,211.0,8.96,209.0,10.44,12.41,47.59359,-54.27349
2023-08-21 01:34:00+00:00,213.0,9.47,215.0,11.29,12.41,47.59359,-54.27349
2023-08-21 01:44:00+00:00,216.0,8.19,216.0,9.7,12.41,47.59359,-54.27349
2023-08-21 01:54:00+00:00,217.0,8.41,216.0,9.51,12.41,47.59359,-54.27349
2023-08-21 02:04:00+00:00,222.0,7.15,221.0,8.32,12.41,47.59359,-54.27349
2023-08-21 02:14:01+00:00,220.0,5.7,232.0,7.82,12.41,47.59359,-54.27349
2023-08-21 02:24:01+00:00,223.0,6.88,220.0,7.65,12.41,47.59359,-54.27349
2023-08-21 02:34:01+00:00,212.0,8.62,214.0,10.27,12.41,47.59359,-54.27349
2023-08-21 02:44:01+00:00,212.0,7.84,212.0,8.48,12.41,47.59359,-54.27349
2023-08-21 02:54:01+00:00,213.0,7.9,215.0,9.02,12.41,47.59359,-54.27349
2023-08-21 03:04:01+00:00,215.0,8.89,218.0,9.95,12.41,47.59359,-54.27349
2023-08-21 03:14:01+00:00,214.0,8.82,217.0,10.15,12.41,47.59359,-54.27349
2023-08-21 03:24:01+00:00,218.0,8.17,230.0,9.34,12.41,47.59359,-54.27349
2023-08-21 03:34:01+00:00,213.0,9.39,213.0,10.37,12.41,47.59359,-54.27349
2023-08-21 03:44:01+00:00,215.0,9.58,218.0,10.83,12.41,47.59359,-54.27349
2023-08-21 03:54:01+00:00,218.0,8.0,212.0,8.94,12.41,47.59359,-54.27349
2023-08-21 04:04:01+00:00,212.0,8.52,216.0,9.9,12.41,47.59359,-54.27349
2023-08-21 04:14:00+00:00,211.0,7.62,209.0,8.93,12.41,47.59359,-54.27349
2023-08-21 04:24:00+00:00,209.0,7.77,208.0,9.32,12.41,47.59359,-54.27349
2023-08-21 04:34:00+00:00,215.0,8.01,222.0,9.29,12.41,47.59359,-54.27349
2023-08-21 04:44:00+00:00,216.0,7.6,225.0,8.64,12.41,47.59359,-54.27349
2023-08-21 04:54:00+00:00,219.0,8.24,218.0,9.15,12.41,47.59359,-54.27349
2023-08-21 05:04:00+00:00,222.0,7.04,225.0,7.86,12.41,47.59359,-54.27349
2023-08-21 05:14:00+00:00,222.0,7.37,223.0,8.55,12.33,47.59359,-54.27349
2023-08-21 05:24:00+00:00,229.0,6.46,231.0,7.82,12.33,47.59359,-54.27349
2023-08-21 05:34:00+00:00,231.0,6.35,230.0,7.12,12.33,47.59359,-54.27349
2023-08-21 05:44:00+00:00,216.0,6.27,218.0,6.77,12.33,47.59359,-54.27349
2023-08-21 05:54:00+00:00,215.0,6.35,224.0,7.16,12.33,47.59359,-54.27349
2023-08-21 06:04:00+00:00,227.0,6.35,232.0,7.45,12.33,47.59359,-54.27349
2023-08-21 06:14:00+00:00,234.0,6.53,247.0,9.55,12.33,47.59359,-54.27349
2023-08-21 06:24:00+00:00,228.0,6.82,225.0,8.09,12.33,47.59359,-54.27349
2023-08-21 06:34:00+00:00,228.0,6.22,241.0,7.53,12.33,47.59359,-54.27349
2023-08-21 06:44:00+00:00,224.0,5.47,228.0,6.4,12.33,47.59359,-54.27349
2023-08-21 06:54:00+00:00,221.0,5.59,218.0,6.23,12.33,47.59359,-54.27349
2023-08-21 07:04:00+00:00,222.0,5.26,223.0,6.0,12.33,47.59359,-54.27349
2023-08-21 07:14:01+00:00,218.0,5.73,216.0,6.31,12.33,47.59359,-54.27349
2023-08-21 07:24:01+00:00,213.0,6.16,212.0,6.87,12.33,47.59359,-54.27349
2023-08-21 07:34:01+00:00,210.0,6.43,213.0,7.45,12.33,47.59359,-54.27349
2023-08-21 07:44:01+00:00,209.0,6.49,210.0,7.33,12.33,47.59359,-54.27349
2023-08-21 07:54:01+00:00,203.0,6.88,205.0,7.61,12.33,47.59359,-54.27349
2023-08-21 08:04:01+00:00,209.0,6.71,209.0,7.65,12.33,47.59359,-54.27349
2023-08-21 08:14:00+00:00,210.0,7.44,215.0,8.26,12.25,47.59359,-54.27349
2023-08-21 08:24:00+00:00,210.0,7.25,212.0,7.99,12.25,47.59359,-54.27349
2023-08-21 08:34:00+00:00,208.0,7.24,208.0,8.09,12.25,47.59359,-54.27349
2023-08-21 08:44:00+00:00,207.0,6.91,213.0,7.55,12.25,47.59359,-54.27349
2023-08-21 08:54:00+00:00,208.0,6.42,211.0,7.18,12.25,47.59359,-54.27349
2023-08-21 09:04:00+00:00,202.0,7.07,206.0,7.64,12.25,47.59359,-54.27349
2023-08-21 09:14:00+00:00,205.0,7.08,203.0,7.53,12.17,47.59359,-54.27349
2023-08-21 09:24:00+00:00,203.0,7.86,205.0,8.73,12.17,47.59359,-54.27349
2023-08-21 09:34:00+00:00,206.0,7.68,209.0,8.7,12.17,47.59359,-54.27349
2023-08-21 09:44:00+00:00,211.0,8.75,212.0,9.45,12.17,47.59359,-54.27349
2023-08-21 09:54:00+00:00,212.0,8.45,216.0,9.54,12.17,47.59359,-54.27349
2023-08-21 10:04:00+00:00,214.0,8.39,214.0,9.62,12.17,47.59359,-54.27349
2023-08-21 10:14:00+00:00,217.0,7.52,220.0,8.6,12.49,47.59359,-54.27349
2023-08-21 10:24:00+00:00,214.0,6.78,217.0,7.52,12.49,47.59359,-54.27349
2023-08-21 10:34:00+00:00,215.0,7.41,218.0,8.81,12.49,47.59359,-54.27349
2023-08-21 10:44:00+00:00,214.0,8.32,212.0,9.58,12.49,47.59359,-54.27349
2023-08-21 10:54:00+00:00,216.0,8.74,216.0,9.47,12.49,47.59359,-54.27349
2023-08-21 11:04:00+00:00,218.0,8.17,217.0,9.23,12.49,47.59359,-54.27349
2023-08-21 11:14:00+00:00,215.0,7.92,214.0,8.87,13.21,47.59359,-54.27349
2023-08-21 11:24:00+00:00,216.0,8.5,216.0,9.41,13.21,47.59359,-54.27349
2023-08-21 11:34:00+00:00,210.0,6.85,206.0,7.62,13.21,47.59359,-54.27349
2023-08-21 11:44:00+00:00,210.0,7.0,211.0,8.0,13.21,47.59359,-54.27349
2023-08-21 11:54:00+00:00,214.0,8.62,214.0,9.53,13.21,47.59359,-54.27349
2023-08-21 12:04:00+00:00,212.0,8.76,212.0,9.53,13.21,47.59359,-54.27349
2023-08-21 12:14:00+00:00,211.0,8.64,215.0,9.63,13.76,47.59359,-54.27349
2023-08-21 12:24:00+00:00,213.0,7.87,215.0,9.11,13.76,47.59359,-54.27349
2023-08-21 12:34:00+00:00,220.0,7.46,217.0,8.43,13.76,47.59359,-54.27349
2023-08-21 12:44:00+00:00,217.0,7.87,217.0,8.63,13.76,47.59359,-54.27349
2023-08-21 12:54:00+00:00,213.0,7.22,216.0,8.2,13.76,47.59359,-54.27349
2023-08-21 13:04:00+00:00,210.0,8.31,211.0,9.22,13.76,47.59359,-54.27349
2023-08-21 13:14:00+00:00,210.0,8.56,212.0,9.97,13.68,47.59359,-54.27349
2023-08-21 13:24:00+00:00,212.0,8.82,210.0,9.64,13.68,47.59359,-54.27349
2023-08-21 13:34:00+00:00,214.0,9.52,215.0,11.13,13.68,47.59359,-54.27349
2023-08-21 13:44:00+00:00,212.0,8.47,214.0,9.66,13.68,47.59359,-54.27349
2023-08-21 13:54:00+00:00,215.0,8.71,217.0,10.1,13.68,47.59359,-54.27349
2023-08-21 14:04:00+00:00,211.0,8.07,212.0,9.34,13.68,47.59359,-54.27349
2023-08-21 14:14:00+00:00,211.0,8.37,212.0,9.38,13.68,47.59359,-54.27349
2023-08-21 14:24:00+00:00,212.0,8.82,214.0,10.0,13.68,47.59359,-54.27349
2023-08-21 14:34:00+00:00,209.0,8.56,209.0,9.56,13.68,47.59359,-54.27349
2023-08-21 14:44:00+00:00,214.0,8.21,212.0,9.26,13.68,47.59359,-54.27349
2023-08-21 14:54:00+00:00,217.0,6.89,217.0,7.87,13.68,47.59359,-54.27349
2023-08-21 15:04:00+00:00,210.0,8.02,210.0,9.18,13.68,47.59359,-54.27349
2023-08-21 15:14:00+00:00,202.0,7.92,202.0,8.81,13.76,47.59359,-54.27349
2023-08-21 15:24:00+00:00,206.0,9.39,208.0,10.67,13.76,47.59359,-54.27349
2023-08-21 15:34:00+00:00,212.0,9.88,215.0,11.0,13.76,47.59359,-54.27349
2023-08-21 15:44:00+00:00,215.0,9.3,215.0,10.37,13.76,47.59359,-54.27349
2023-08-21 15:54:00+00:00,213.0,9.56,217.0,10.71,13.76,47.59359,-54.27349
2023-08-21 16:04:00+00:00,210.0,10.06,216.0,12.04,13.76,47.59359,-54.27349
2023-08-21 16:14:00+00:00,212.0,10.71,212.0,12.23,13.92,47.59359,-54.27349
2023-08-21 16:24:00+00:00,207.0,10.53,212.0,11.96,13.92,47.59359,-54.27349
2023-08-21 16:34:00+00:00,211.0,9.53,213.0,10.66,13.92,47.59359,-54.27349
2023-08-21 16:44:00+00:00,214.0,10.19,218.0,11.83,13.92,47.59359,-54.27349
2023-08-21 16:54:00+00:00,212.0,10.71,217.0,12.06,13.92,47.59359,-54.27349
2023-08-21 17:04:00+00:00,215.0,9.92,214.0,10.7,13.92,47.59359,-54.27349
2023-08-21 17:14:00+00:00,216.0,10.38,222.0,11.79,13.68,47.59359,-54.27349
2023-08-21 17:24:00+00:00,213.0,9.96,209.0,11.59,13.68,47.59359,-54.27349
2023-08-21 17:34:00+00:00,214.0,10.27,213.0,11.96,13.68,47.59359,-54.27349
2023-08-21 17:44:00+00:00,210.0,9.06,214.0,10.17,13.68,47.59359,-54.27349
2023-08-21 17:54:00+00:00,213.0,11.05,211.0,12.08,13.68,47.59359,-54.27349
2023-08-21 18:04:00+00:00,214.0,11.13,211.0,13.17,13.68,47.59359,-54.27349
2023-08-21 18:14:01+00:00,215.0,9.89,216.0,11.28,13.76,47.59359,-54.27349
2023-08-21 18:24:01+00:00,216.0,8.52,214.0,9.74,13.76,47.59359,-54.27349
2023-08-21 18:34:01+00:00,212.0,8.05,211.0,9.2,13.76,47.59359,-54.27349
2023-08-21 18:44:01+00:00,217.0,8.14,217.0,9.73,13.76,47.59359,-54.27349
2023-08-21 18:54:01+00:00,213.0,9.07,213.0,10.46,13.76,47.59359,-54.27349
2023-08-21 19:04:01+00:00,213.0,9.2,216.0,10.89,13.76,47.59359,-54.27349
2023-08-21 19:14:00+00:00,210.0,9.14,214.0,10.12,13.68,47.59359,-54.27349
2023-08-21 19:24:00+00:00,210.0,9.0,209.0,9.93,13.68,47.59359,-54.27349
2023-08-21 19:34:00+00:00,209.0,10.09,210.0,11.19,13.68,47.59359,-54.27349
2023-08-21 19:44:00+00:00,211.0,10.62,213.0,11.89,13.68,47.59359,-54.27349
2023-08-21 19:54:00+00:00,211.0,10.98,214.0,13.01,13.68,47.59359,-54.27349
2023-08-21 20:04:00+00:00,214.0,10.56,213.0,11.93,13.68,47.59359,-54.27349
2023-08-21 20:14:01+00:00,211.0,11.62,208.0,12.98,13.44,47.59359,-54.27349
2023-08-21 20:24:01+00:00,215.0,11.82,220.0,14.1,13.44,47.59359,-54.27349
2023-08-21 20:34:01+00:00,213.0,9.58,210.0,11.02,13.44,47.59359,-54.27349
2023-08-21 20:44:01+00:00,213.0,9.32,213.0,10.6,13.44,47.59359,-54.27349
2023-08-21 20:54:01+00:00,213.0,10.34,213.0,11.52,13.44,47.59359,-54.27349
2023-08-21 21:04:01+00:00,212.0,9.23,213.0,10.37,13.44,47.59359,-54.27349
2023-08-21 21:14:00+00:00,218.0,8.82,217.0,9.79,13.29,47.59359,-54.27349
2023-08-21 21:24:00+00:00,217.0,7.33,217.0,8.03,13.29,47.59359,-54.27349
2023-08-21 21:34:00+00:00,211.0,7.17,204.0,8.05,13.29,47.59359,-54.27349
2023-08-21 21:44:00+00:00,211.0,8.26,210.0,9.78,13.29,47.59359,-54.27349
2023-08-21 21:54:00+00:00,213.0,7.64,217.0,9.08,13.29,47.59359,-54.27349
2023-08-21 22:04:00+00:00,216.0,7.47,216.0,8.73,13.29,47.59359,-54.27349
2023-08-21 22:14:00+00:00,216.0,8.06,217.0,9.31,12.73,47.59359,-54.27349
2023-08-21 22:24:00+00:00,210.0,7.08,208.0,8.13,12.73,47.59359,-54.27349
2023-08-21 22:34:00+00:00,208.0,6.38,210.0,7.18,12.73,47.59359,-54.27349
2023-08-21 22:44:00+00:00,212.0,6.18,210.0,6.84,12.73,47.59359,-54.27349
2023-08-21 22:54:00+00:00,216.0,6.01,220.0,7.28,12.73,47.59359,-54.27349
2023-08-21 23:04:00+00:00,214.0,6.72,215.0,7.33,12.73,47.59359,-54.27349
2023-08-21 23:14:00+00:00,217.0,7.38,217.0,8.06,12.41,47.59359,-54.27349
2023-08-21 23:24:00+00:00,216.0,7.24,215.0,7.93,12.41,47.59359,-54.27349
2023-08-21 23:34:00+00:00,215.0,7.86,214.0,9.31,12.41,47.59359,-54.27349
2023-08-21 23:44:00+00:00,217.0,8.3,217.0,9.47,12.41,47.59359,-54.27349
2023-08-21 23:54:00+00:00,218.0,8.73,219.0,9.63,12.41,47.59359,-54.27349
